Date,Installs,Update checks
2021-09-06,6,1
2021-09-07,32,17
2021-09-08,31,34
2021-09-09,49,43
2021-09-10,25,49
2021-09-11,25,37
2021-09-12,34,39
2021-09-13,21,47
2021-09-14,30,53
2021-09-15,25,49
2021-09-16,32,72
2021-09-17,32,56
2021-09-18,33,62
2021-09-19,37,63
2021-09-20,22,87
2021-09-21,38,99
2021-09-22,43,94
2021-09-23,50,104
2021-09-24,52,110
2021-09-25,45,103
2021-09-26,40,115
2021-09-27,61,148
2021-09-28,51,184
2021-09-29,58,167
2021-09-30,68,181
2021-10-01,85,201
2021-10-02,56,158
2021-10-03,45,161
2021-10-04,78,223
2021-10-05,80,252
2021-10-06,68,246
2021-10-07,85,268
2021-10-08,80,251
2021-10-09,60,222
2021-10-10,56,197
2021-10-11,69,270
2021-10-12,79,292
2021-10-13,93,316
2021-10-14,82,292
2021-10-15,79,313
2021-10-16,48,222
2021-10-17,50,249
2021-10-18,77,361
2021-10-19,88,396
2021-10-20,96,392
2021-10-21,97,406
2021-10-22,121,375
2021-10-23,31,284
2021-10-24,57,337
2021-10-25,89,468
2021-10-26,113,473
2021-10-27,107,490
2021-10-28,78,477
2021-10-29,142,446
2021-10-30,174,372
2021-10-31,154,413
2021-11-01,100,507
2021-11-02,100,615
2021-11-03,123,604
2021-11-04,129,593
2021-11-05,107,580
2021-11-06,61,458
2021-11-07,57,455
2021-11-08,94,678
2021-11-09,81,652
2021-11-10,114,673
2021-11-11,94,586
2021-11-12,93,602
2021-11-13,68,468
2021-11-14,62,472
2021-11-15,89,716
2021-11-16,89,679
2021-11-17,110,696
2021-11-18,112,729
2021-11-19,112,711
2021-11-20,75,499
2021-11-21,75,510
2021-11-22,85,722
2021-11-23,115,738
2021-11-24,108,699
2021-11-25,82,666
2021-11-26,79,688
2021-11-27,59,558
2021-11-28,67,548
2021-11-29,99,842
2021-11-30,105,863
2021-12-01,121,833
2021-12-02,116,868
2021-12-03,115,824
2021-12-04,65,592
2021-12-05,56,603
2021-12-06,100,887
2021-12-07,115,910
2021-12-08,118,860
2021-12-09,105,920
2021-12-10,134,913
2021-12-11,75,639
2021-12-12,62,634
2021-12-13,91,986
2021-12-14,114,890
2021-12-15,116,951
2021-12-16,106,908
2021-12-17,92,820
2021-12-18,71,682
2021-12-19,67,630
2021-12-20,68,730
2021-12-21,72,760
2021-12-22,74,699
2021-12-23,66,651
2021-12-24,33,596
2021-12-25,40,571
2021-12-26,36,548
2021-12-27,40,613
2021-12-28,46,628
2021-12-29,44,618
2021-12-30,45,578
2021-12-31,41,563
2022-01-01,40,546
2022-01-02,38,614
2022-01-03,50,724
2022-01-04,44,752
2022-01-05,50,773
2022-01-06,54,743
2022-01-07,65,722
2022-01-08,50,660
2022-01-09,40,54
2022-01-10,51,0
2022-01-11,79,894
2022-01-12,67,838
2022-01-13,77,875
2022-01-14,74,826
2022-01-15,46,595
2022-01-16,60,616
2022-01-17,57,832
2022-01-18,70,894
2022-01-19,71,884
2022-01-20,96,894
2022-01-21,108,833
2022-01-22,57,666
2022-01-23,52,646
2022-01-24,83,936
2022-01-25,90,937
2022-01-26,94,931
2022-01-27,107,926
2022-01-28,75,888
2022-01-29,56,681
2022-01-30,52,686
2022-01-31,98,945
2022-02-01,85,975
2022-02-02,101,941
2022-02-03,90,924
2022-02-04,88,930
2022-02-05,66,692
2022-02-06,40,745
2022-02-07,99,1012
2022-02-08,106,995
2022-02-09,94,1006
2022-02-10,104,1013
2022-02-11,98,986
2022-02-12,62,715
2022-02-13,63,749
2022-02-14,69,1038
2022-02-15,120,1021
2022-02-16,109,1027
2022-02-17,104,1033
2022-02-18,92,961
2022-02-19,67,736
2022-02-20,61,752
2022-02-21,57,900
2022-02-22,86,1007
2022-02-23,76,983
2022-02-24,105,983
2022-02-25,95,939
2022-02-26,71,726
2022-02-27,48,735
2022-02-28,63,1071
2022-03-01,68,1063
2022-03-02,85,1002
2022-03-03,78,1016
2022-03-04,73,1007
2022-03-05,58,751
2022-03-06,57,740
2022-03-07,83,1122
2022-03-08,108,1067
2022-03-09,81,1097
2022-03-10,95,1067
2022-03-11,96,1071
2022-03-12,75,737
2022-03-13,63,759
2022-03-14,96,1095
2022-03-15,88,1043
2022-03-16,92,1046
2022-03-17,87,1059
2022-03-18,88,976
2022-03-19,69,753
2022-03-20,49,801
2022-03-21,94,1147
2022-03-22,87,1092
2022-03-23,77,1114
2022-03-24,88,1070
2022-03-25,95,1082
2022-03-26,72,793
2022-03-27,71,772
2022-03-28,103,1198
2022-03-29,100,1177
2022-03-30,92,1153
2022-03-31,98,1192
2022-04-01,100,1099
2022-04-02,75,792
2022-04-03,60,816
2022-04-04,48,1230
2022-04-05,105,1205
2022-04-06,98,1178
2022-04-07,121,1181
2022-04-08,86,1102
2022-04-09,69,819
2022-04-10,71,847
2022-04-11,87,1186
2022-04-12,107,1121
2022-04-13,104,1093
2022-04-14,104,994
2022-04-15,74,829
2022-04-16,67,783
2022-04-17,55,786
2022-04-18,69,952
2022-04-19,91,1110
2022-04-20,83,1166
2022-04-21,91,1138
2022-04-22,80,1097
2022-04-23,68,810
2022-04-24,61,835
2022-04-25,81,1299
2022-04-26,106,1236
2022-04-27,113,1222
2022-04-28,129,1265
2022-04-29,97,1170
2022-04-30,67,844
2022-05-01,57,846
2022-05-02,97,1186
2022-05-03,94,1214
2022-05-04,104,1242
2022-05-05,106,1201
2022-05-06,107,1206
2022-05-07,68,894
2022-05-08,57,888
2022-05-09,79,1404
2022-05-10,89,1321
2022-05-11,119,1336
2022-05-12,119,1350
2022-05-13,114,1267
2022-05-14,65,868
2022-05-15,54,917
2022-05-16,114,1401
2022-05-17,112,1314
2022-05-18,108,1300
2022-05-19,113,1291
2022-05-20,110,1200
2022-05-21,67,898
2022-05-22,65,864
2022-05-23,92,1293
2022-05-24,97,1251
2022-05-25,98,1227
2022-05-26,96,1153
2022-05-27,95,1090
2022-05-28,64,823
2022-05-29,60,919
2022-05-30,71,1184
2022-05-31,86,1264
2022-06-01,94,1187
2022-06-02,93,1181
2022-06-03,99,1090
2022-06-04,66,871
2022-06-05,41,900
2022-06-06,76,1139
2022-06-07,82,1137
2022-06-08,78,1174
2022-06-09,97,1091
2022-06-10,75,1034
2022-06-11,42,858
2022-06-12,59,887
2022-06-13,89,1158
2022-06-14,89,1108
2022-06-15,78,1045
2022-06-16,81,1004
2022-06-17,76,1019
2022-06-18,59,839
2022-06-19,68,883
2022-06-20,84,1080
2022-06-21,85,1046
2022-06-22,81,1013
2022-06-23,67,1013
2022-06-24,59,929
2022-06-25,56,810
2022-06-26,49,842
2022-06-27,58,960
2022-06-28,70,978
2022-06-29,61,938
2022-06-30,60,935
2022-07-01,50,853
2022-07-02,30,735
2022-07-03,39,806
2022-07-04,47,868
2022-07-05,55,899
2022-07-06,58,926
2022-07-07,49,860
2022-07-08,45,890
2022-07-09,33,760
2022-07-10,36,772
2022-07-11,43,850
2022-07-12,54,880
2022-07-13,54,856
2022-07-14,45,826
2022-07-15,54,848
2022-07-16,39,795
2022-07-17,33,773
2022-07-18,54,897
2022-07-19,50,887
2022-07-20,53,829
2022-07-21,46,833
2022-07-22,46,808
2022-07-23,41,695
2022-07-24,17,585
2022-07-25,50,874
2022-07-26,52,833
2022-07-27,48,841
2022-07-28,60,880
2022-07-29,51,816
2022-07-30,45,665
2022-07-31,41,800
2022-08-01,44,858
2022-08-02,60,840
2022-08-03,33,842
2022-08-04,62,846
2022-08-05,46,846
2022-08-06,35,768
2022-08-07,43,788
2022-08-08,43,876
2022-08-09,68,855
2022-08-10,39,896
2022-08-11,42,883
2022-08-12,35,880
2022-08-13,35,736
2022-08-14,43,776
2022-08-15,51,840
2022-08-16,62,921
2022-08-17,53,929
2022-08-18,45,900
2022-08-19,50,883
2022-08-20,46,813
2022-08-21,42,817
2022-08-22,57,982
2022-08-23,52,936
2022-08-24,56,935
2022-08-25,42,923
2022-08-26,60,919
2022-08-27,40,760
2022-08-28,37,814
2022-08-29,49,998
2022-08-30,66,1003
2022-08-31,48,1042
2022-09-01,56,1025
2022-09-02,55,1016
2022-09-03,40,815
2022-09-04,27,833
2022-09-05,35,1013
2022-09-06,43,1150
2022-09-07,64,1099
2022-09-08,64,1125
2022-09-09,61,1093
2022-09-10,32,808
2022-09-11,27,850
2022-09-12,49,1180
2022-09-13,72,1120
2022-09-14,52,1143
2022-09-15,64,1176
2022-09-16,54,1097
2022-09-17,39,854
2022-09-18,36,931
2022-09-19,56,1201
2022-09-20,68,1095
2022-09-21,65,1129
2022-09-22,50,1127
2022-09-23,37,1097
2022-09-24,33,809
2022-09-25,37,832
2022-09-26,48,1124
2022-09-27,62,1109
2022-09-28,56,1087
2022-09-29,53,1102
2022-09-30,57,1050
2022-10-01,29,815
2022-10-02,29,826
2022-10-03,46,1127
2022-10-04,55,1067
2022-10-05,51,1082
2022-10-06,47,1091
2022-10-07,68,1047
2022-10-08,26,805
2022-10-09,24,791
2022-10-10,43,1065
2022-10-11,42,1126
2022-10-12,58,1070
2022-10-13,54,1100
2022-10-14,48,954
2022-10-15,45,771
2022-10-16,32,842
2022-10-17,41,1150
2022-10-18,35,1055
2022-10-19,59,1103
2022-10-20,61,1027
2022-10-21,39,992
2022-10-22,27,781
2022-10-23,30,782
2022-10-24,42,1088
2022-10-25,49,1085
2022-10-26,50,1061
2022-10-27,48,1035
2022-10-28,56,1055
2022-10-29,40,751
2022-10-30,40,801
2022-10-31,42,1036
2022-11-01,34,967
2022-11-02,46,1088
2022-11-03,61,1110
2022-11-04,65,976
2022-11-05,27,753
2022-11-06,21,826
2022-11-07,45,1123
2022-11-08,44,1080
2022-11-09,53,1095
2022-11-10,44,1114
2022-11-11,48,972
2022-11-12,22,770
2022-11-13,23,824
2022-11-14,63,1141
2022-11-15,44,1118
2022-11-16,52,1084
2022-11-17,57,956
2022-11-18,44,885
2022-11-19,35,629
2022-11-20,32,694
2022-11-21,34,971
2022-11-22,43,968
2022-11-23,40,949
2022-11-24,33,889
2022-11-25,39,884
2022-11-26,21,627
2022-11-27,26,707
2022-11-28,45,1029
2022-11-29,37,958
2022-11-30,49,948
2022-12-01,46,947
2022-12-02,42,894
2022-12-03,27,652
2022-12-04,29,666
2022-12-05,36,974
2022-12-06,30,905
2022-12-07,47,958
2022-12-08,52,938
2022-12-09,43,867
2022-12-10,27,603
2022-12-11,30,673
2022-12-12,27,924
2022-12-13,30,867
2022-12-14,36,791
2022-12-15,42,901
2022-12-16,42,809
2022-12-17,28,584
2022-12-18,14,588
2022-12-19,25,837
2022-12-20,36,725
2022-12-21,33,659
2022-12-22,18,663
2022-12-23,25,563
2022-12-24,17,496
2022-12-25,13,472
2022-12-26,14,556
2022-12-27,14,565
2022-12-28,17,572
2022-12-29,9,553
2022-12-30,19,582
2022-12-31,12,466
2023-01-01,10,520
2023-01-02,15,645
2023-01-03,23,738
2023-01-04,19,817
2023-01-05,24,787
2023-01-06,16,762
2023-01-07,11,633
2023-01-08,17,679
2023-01-09,31,914
2023-01-10,25,924
2023-01-11,21,942
2023-01-12,34,925
2023-01-13,30,906
2023-01-14,22,669
2023-01-15,17,656
2023-01-16,20,900
2023-01-17,41,948
2023-01-18,37,916
2023-01-19,30,923
2023-01-20,39,858
2023-01-21,24,655
2023-01-22,27,676
2023-01-23,32,956
2023-01-24,37,902
2023-01-25,21,909
2023-01-26,28,869
2023-01-27,36,842
2023-01-28,28,669
2023-01-29,22,682
2023-01-30,31,922
2023-01-31,36,903
2023-02-01,24,907
2023-02-02,16,914
2023-02-03,32,841
2023-02-04,31,658
2023-02-05,23,648
2023-02-06,25,995
2023-02-07,24,901
2023-02-08,25,948
2023-02-09,33,914
2023-02-10,28,809
2023-02-11,14,628
2023-02-12,17,659
2023-02-13,26,934
2023-02-14,24,867
2023-02-15,26,853
2023-02-16,29,879
2023-02-17,31,800
2023-02-18,30,595
2023-02-19,18,614
2023-02-20,10,787
2023-02-21,23,804
2023-02-22,36,808
2023-02-23,23,803
2023-02-24,25,763
2023-02-25,27,591
2023-02-26,17,625
2023-02-27,31,862
2023-02-28,31,821
2023-03-01,31,834
2023-03-02,45,810
2023-03-03,33,796
2023-03-04,22,562
2023-03-05,26,605
2023-03-06,34,884
2023-03-07,48,889
2023-03-08,37,862
2023-03-09,39,866
2023-03-10,50,829
2023-03-11,38,624
2023-03-12,22,661
2023-03-13,32,910
2023-03-14,38,838
2023-03-15,32,849
2023-03-16,33,818
2023-03-17,38,795
2023-03-18,26,564
2023-03-19,19,600
2023-03-20,34,912
2023-03-21,44,862
2023-03-22,43,863
2023-03-23,45,853
2023-03-24,38,830
2023-03-25,27,623
2023-03-26,25,614
2023-03-27,50,904
2023-03-28,34,871
2023-03-29,30,828
2023-03-30,38,792
2023-03-31,40,774
2023-04-01,22,595
2023-04-02,21,637
2023-04-03,27,850
2023-04-04,34,791
2023-04-05,38,765
2023-04-06,32,724
2023-04-07,28,597
2023-04-08,16,534
2023-04-09,23,535
2023-04-10,22,638
2023-04-11,29,712
2023-04-12,46,819
2023-04-13,31,767
2023-04-14,41,746
2023-04-15,24,559
2023-04-16,12,562
2023-04-17,44,850
2023-04-18,39,850
2023-04-19,38,793
2023-04-20,43,807
2023-04-21,34,774
2023-04-22,24,558
2023-04-23,23,578
2023-04-24,34,862
2023-04-25,42,798
2023-04-26,50,828
2023-04-27,47,807
2023-04-28,41,752
2023-04-29,28,592
2023-04-30,34,566
2023-05-01,44,718
2023-05-02,47,832
2023-05-03,32,836
2023-05-04,49,798
2023-05-05,47,750
2023-05-06,28,587
2023-05-07,21,595
2023-05-08,36,891
2023-05-09,31,826
2023-05-10,45,886
2023-05-11,34,823
2023-05-12,41,730
2023-05-13,18,566
2023-05-14,25,595
2023-05-15,42,881
2023-05-16,44,805
2023-05-17,38,811
2023-05-18,40,767
2023-05-19,40,709
2023-05-20,22,529
2023-05-21,16,540
2023-05-22,32,797
2023-05-23,42,776
2023-05-24,45,801
2023-05-25,39,783
2023-05-26,39,732
2023-05-27,21,513
2023-05-28,19,547
2023-05-29,30,690
2023-05-30,32,756
2023-05-31,45,776
2023-06-01,43,749
2023-06-02,31,674
2023-06-03,22,513
2023-06-04,24,548
2023-06-05,30,721
2023-06-06,45,719
2023-06-07,41,711
2023-06-08,47,695
2023-06-09,28,626
2023-06-10,18,491
2023-06-11,15,545
2023-06-12,32,712
2023-06-13,23,710
2023-06-14,26,669
2023-06-15,47,672
2023-06-16,28,624
2023-06-17,24,517
2023-06-18,18,540
2023-06-19,30,620
2023-06-20,32,635
2023-06-21,31,593
2023-06-22,27,578
2023-06-23,16,543
2023-06-24,13,450
2023-06-25,13,504
2023-06-26,10,573
2023-06-27,12,530
2023-06-28,10,509
2023-06-29,19,541
2023-06-30,19,518
2023-07-01,17,444
2023-07-02,12,438
2023-07-03,12,520
2023-07-04,16,485
2023-07-05,9,481
2023-07-06,6,488
2023-07-07,12,450
2023-07-08,17,426
2023-07-09,5,422
2023-07-10,8,506
2023-07-11,12,476
2023-07-12,15,474
2023-07-13,20,465
2023-07-14,10,428
2023-07-15,15,403
2023-07-16,15,418
2023-07-17,16,458
2023-07-18,6,449
2023-07-19,18,477
2023-07-20,22,470
2023-07-21,15,445
2023-07-22,6,380
2023-07-23,14,416
2023-07-24,11,459
2023-07-25,16,452
2023-07-26,17,491
2023-07-27,11,501
2023-07-28,18,464
2023-07-29,8,420
2023-07-30,12,430
2023-07-31,13,488
2023-08-01,12,470
2023-08-02,17,486
2023-08-03,10,486
2023-08-04,24,446
2023-08-05,12,390
2023-08-06,17,418
2023-08-07,17,446
2023-08-08,12,435
2023-08-09,12,471
2023-08-10,10,445
2023-08-11,12,452
2023-08-12,14,401
2023-08-13,11,390
2023-08-14,17,460
2023-08-15,12,487
2023-08-16,18,452
2023-08-17,14,515
2023-08-18,24,494
2023-08-19,8,412
2023-08-20,8,428
2023-08-21,8,486
2023-08-22,18,501
2023-08-23,17,514
2023-08-24,15,473
2023-08-25,22,495
2023-08-26,5,410
2023-08-27,14,423
2023-08-28,19,505
2023-08-29,20,515
2023-08-30,24,568
2023-08-31,24,514
2023-09-01,18,535
2023-09-02,14,402
2023-09-03,9,452
2023-09-04,17,538
2023-09-05,26,593
2023-09-06,23,577
2023-09-07,12,608
2023-09-08,21,563
2023-09-09,23,447
2023-09-10,10,476
2023-09-11,23,620
2023-09-12,21,630
2023-09-13,28,573
2023-09-14,30,599
2023-09-15,21,569
2023-09-16,22,418
2023-09-17,15,444
2023-09-18,26,632
2023-09-19,32,627
2023-09-20,27,601
2023-09-21,26,620
2023-09-22,35,584
2023-09-23,16,436
2023-09-24,12,471
2023-09-25,17,616
2023-09-26,29,617
2023-09-27,19,602
2023-09-28,24,602
2023-09-29,29,569
2023-09-30,20,441
2023-10-01,13,442
2023-10-02,26,646
2023-10-03,26,581
2023-10-04,29,615
2023-10-05,19,604
2023-10-06,28,556
2023-10-07,14,421
2023-10-08,10,439
2023-10-09,18,596
2023-10-10,26,622
2023-10-11,31,639
2023-10-12,25,613
2023-10-13,32,561
2023-10-14,14,411
2023-10-15,15,428
2023-10-16,30,619
2023-10-17,25,584
2023-10-18,26,582
2023-10-19,27,573
2023-10-20,20,563
2023-10-21,17,433
2023-10-22,16,423
2023-10-23,23,680
2023-10-24,28,642
2023-10-25,19,616
2023-10-26,24,599
2023-10-27,26,554
2023-10-28,11,416
2023-10-29,17,448
2023-10-30,18,592
2023-10-31,25,561
2023-11-01,19,577
2023-11-02,23,559
2023-11-03,23,564
2023-11-04,22,417
2023-11-05,12,422
2023-11-06,17,653
2023-11-07,24,619
2023-11-08,27,619
2023-11-09,27,613
2023-11-10,18,563
2023-11-11,17,391
2023-11-12,17,424
2023-11-13,27,649
2023-11-14,31,580
2023-11-15,38,609
2023-11-16,39,591
2023-11-17,26,500
2023-11-18,23,446
2023-11-19,18,429
2023-11-20,20,619
2023-11-21,20,595
2023-11-22,22,569
2023-11-23,29,553
2023-11-24,23,535
2023-11-25,15,395
2023-11-26,13,448
2023-11-27,17,627
2023-11-28,33,624
2023-11-29,32,596
2023-11-30,38,622
2023-12-01,35,595
2023-12-02,15,390
2023-12-03,21,435
2023-12-04,24,617
2023-12-05,40,480
2023-12-06,25,464
2023-12-07,34,453
2023-12-08,25,473
2023-12-09,20,315
2023-12-10,15,310
2023-12-11,22,460
2023-12-12,34,446
2023-12-13,26,425
2023-12-14,36,390
2023-12-15,45,390
2023-12-16,14,285
2023-12-17,21,304
2023-12-18,34,385
2023-12-19,32,381
2023-12-20,32,380
2023-12-21,23,360
2023-12-22,17,287
2023-12-23,16,248
2023-12-24,16,236
2023-12-25,11,246
2023-12-26,12,250
2023-12-27,8,283
2023-12-28,7,272
2023-12-29,14,245
2023-12-30,16,253
2023-12-31,6,222
2024-01-01,15,224
2024-01-02,14,275
2024-01-03,8,293
2024-01-04,15,291
2024-01-05,18,304
2024-01-06,14,275
2024-01-07,15,264
2024-01-08,14,357
2024-01-09,12,371
2024-01-10,25,422
2024-01-11,20,364
2024-01-12,32,363
2024-01-13,20,298
2024-01-14,19,285
2024-01-15,21,350
2024-01-16,27,410
2024-01-17,20,372
2024-01-18,30,368
2024-01-19,29,362
2024-01-20,24,274
2024-01-21,24,289
2024-01-22,16,413
2024-01-23,28,448
2024-01-24,29,459
2024-01-25,18,448
2024-01-26,27,401
2024-01-27,14,330
2024-01-28,21,358
2024-01-29,25,436
2024-01-30,28,453
2024-01-31,22,440
2024-02-01,34,453
2024-02-02,18,412
2024-02-03,29,321
2024-02-04,19,321
2024-02-05,24,472
2024-02-06,20,479
2024-02-07,27,446
2024-02-08,31,445
2024-02-09,26,386
2024-02-10,16,322
2024-02-11,20,318
2024-02-12,29,446
2024-02-13,31,427
2024-02-14,25,418
2024-02-15,19,413
2024-02-16,34,388
2024-02-17,13,323
2024-02-18,16,330
2024-02-19,18,407
2024-02-20,14,465
2024-02-21,13,450
2024-02-22,22,422
2024-02-23,24,385
2024-02-24,21,315
2024-02-25,18,349
2024-02-26,34,450
2024-02-27,29,467
2024-02-28,37,413
2024-02-29,34,447
2024-03-01,34,430
2024-03-02,20,335
2024-03-03,11,351
2024-03-04,20,464
2024-03-05,25,499
2024-03-06,29,449
2024-03-07,29,467
2024-03-08,34,468
2024-03-09,37,336
2024-03-10,19,377
2024-03-11,20,454
2024-03-12,25,470
2024-03-13,24,451
2024-03-14,31,446
2024-03-15,25,404
2024-03-16,21,347
2024-03-17,15,376
2024-03-18,20,453
2024-03-19,23,478
2024-03-20,29,421
2024-03-21,36,419
2024-03-22,33,425
2024-03-23,14,329
2024-03-24,16,357
2024-03-25,17,429
2024-03-26,21,425
2024-03-27,31,432
2024-03-28,23,410
2024-03-29,14,319
2024-03-30,12,312
2024-03-31,13,328
2024-04-01,18,378
2024-04-02,25,434
2024-04-03,25,455
2024-04-04,21,435
2024-04-05,27,421
2024-04-06,18,333
2024-04-07,16,345
2024-04-08,22,472
2024-04-09,18,454
2024-04-10,35,440
2024-04-11,32,458
2024-04-12,18,420
2024-04-13,8,330
2024-04-14,7,342
2024-04-15,16,454
2024-04-16,21,475
2024-04-17,14,458
2024-04-18,23,448
2024-04-19,18,438
2024-04-20,16,335
2024-04-21,7,351
2024-04-22,21,474
2024-04-23,17,459
2024-04-24,22,438
2024-04-25,34,438
2024-04-26,19,399
2024-04-27,16,318
2024-04-28,20,353
2024-04-29,22,459
2024-04-30,29,441
2024-05-01,22,389
2024-05-02,26,443
2024-05-03,24,421
2024-05-04,16,325
2024-05-05,12,340
2024-05-06,17,456
2024-05-07,19,440
2024-05-08,20,438
2024-05-09,20,426
2024-05-10,20,397
2024-05-11,10,320
2024-05-12,12,345
2024-05-13,19,459
2024-05-14,16,496
2024-05-15,26,456
2024-05-16,26,469
2024-05-17,27,407
2024-05-18,11,333
2024-05-19,17,342
2024-05-20,13,415
2024-05-21,22,453
2024-05-22,20,431
2024-05-23,26,449
2024-05-24,25,427
2024-05-25,14,362
2024-05-26,16,326
2024-05-27,14,440
2024-05-28,17,454
2024-05-29,16,422
2024-05-30,18,403
2024-05-31,17,389
2024-06-01,21,327
2024-06-02,14,348
2024-06-03,21,415
2024-06-04,14,431
2024-06-05,15,417
2024-06-06,17,371
2024-06-07,9,374
2024-06-08,13,314
2024-06-09,16,339
2024-06-10,17,382
